Hourly Data Report for July 03, 2021

POND INLET A
NUNAVUT
Current Station Operator: NAVCAN

72°41'22.000" N
77°58'08.000" W
61.60 m
2403206
71095
YIO

Download Data

Hourly Data (July 2021)
Hourly Data Report for July 3, 2021
TIME
LST
Temp Definition
°C
Dew Point Definition
°C
Rel Hum Definition
%
Precip. Amount Definition
mm

Wind Dir Definition
10's deg

Wind Spd Definition
km/h
Visibility Definition
km
Stn Press Definition
kPa
Hmdx Definition


Wind Chill Definition


Weather Definition


00:00 2.2 -1.5 77 0.0 27 8 16.1 100.20     LegendNANA
01:00 1.9 -1.0 81 0.0   0 16.1 100.19     LegendNANA
02:00 2.1 -0.8 81 0.0 LegendMM 4 16.1 100.19     LegendNANA
03:00 2.2 -0.8 81 0.0 15 5 16.1 100.20     LegendNANA
04:00 2.4 -0.7 80 0.0 23 5 16.1 100.22     LegendNANA
05:00 2.2 -0.3 83 0.0 27 5 16.1 100.24     Rain
06:00 2.0 0.5 90 0.0 22 5 16.1 100.25     Rain
07:00 2.4 0.7 89 0.0 LegendMM 4 16.1 100.24     Rain
08:00 3.2 0.3 81 0.0 25 9 16.1 100.26     LegendNANA
09:00 3.2 -0.1 79 0.0 28 8 16.1 100.25     LegendNANA
10:00 2.8 -0.1 81 0.0 28 8 16.1 100.28     LegendNANA
11:00 2.6 0.0 83 0.0 28 8 16.1 100.29     LegendNANA
12:00 3.0 0.0 81 0.0 28 8 16.1 100.31     LegendNANA
13:00 3.2 0.1 80 0.0 28 9 16.1 100.33     LegendNANA
14:00 2.8 0.2 83 0.0 30 11 16.1 100.35     LegendNANA
15:00 2.9 0.3 83 0.0 31 8 16.1 100.33     LegendNANA
16:00 3.4 0.1 79 0.0 34 8 12.9 100.34     LegendNANA
17:00 3.8 -1.0 71 0.0 33 8 16.1 100.34     LegendNANA
18:00 3.7 0.2 78 0.0 4 9 16.1 100.36     LegendNANA
19:00 2.9 -0.1 81 0.0 4 11 16.1 100.39     LegendNANA
20:00 1.9 0.3 89 0.0 2 8 16.1 100.42     LegendNANA
21:00 1.4 -0.1 90 0.0 34 5 16.1 100.44     LegendNANA
22:00 1.0 0.0 93 0.0 21 8 16.1 100.45     LegendNANA
23:00 2.1 0.2 88 0.0 18 11 16.1 100.48     LegendNANA

Notes on Data Quality.

Legend

  • E = Estimated
  • M = Missing
  • NA = Not Available*
  • [empty] = Indicates an unobserved value
Date modified: